FENGYUN 1C DEB

Satellite information

Favourite Embed

Satellite Type and Status

DEBRISIN ORBIT

Key statistics

Satellite FENGYUN 1C DEB at a glance.

Uptime

9656

Days in orbit

Revolutions

≈ 14.1

Per day

Orbit

SSO

Sun Synchronous Orbit

Inclination

98.7

Latest

Satellite identification and parameters

Extended collection of information and parameters for FENGYUN 1C DEB.

Object identification

Identified? True

Debris? True

Object name: FENGYUN 1C DEB

International designator: 1999-025QH

Object number (NORAD): 30080

Object ID (CCSDS): 30080

Country: PEOPLES REPUBLIC OF CHINA (PRC)

Current information (Y/N): Y

RCS size: SMALL

Orbital parameters

Period: 102.074 minutes

Inclination: 98.6927 deg

SMA: 7234.976 km

Apoapsis: 952.425 km

Periapsis: 761.257 km

RAAN: 271.2449 deg

Eccentricy: 0.01321136

Argument of periapsis: 224.3688 deg

Mean anomaly: 164.3358 deg

Mean motion: 14.10740417 rev/day

Mean motion (dot): 0.00000615 rev/day2

B* drag term: 0.00033921997 1/REarth

Two-line elements (TLE)

Creation date: Oct. 16, 2025, 2:37 a.m.

Reference frame: TEME

Reference center: EARTH

Epoch: Oct. 15, 2025, 9:03 p.m. UTC

TLE line 0: 0 FENGYUN 1C DEB

TLE line 1: 1 30080U 99025QH 25288.87766417 .00000615 00000-0 33922-3 0 9991

TLE line 2: 2 30080 98.6927 271.2449 0132114 224.3688 164.3358 14.10740417964220

Live tracking on map

Real-time ground track for satellite FENGYUN 1C DEB.

In-orbit conjunctions

A list of the most updated potential collisions computed for object FENGYUN 1C DEB.

Target Orbit TCA Probability of collision Miss distance Type
COSMOS 1275 DEB LEO 2025-03-11 20:12:00 0.0001288623 112.0 (m) DEBRIS
METEOR 2-6 LEO 2025-02-23 12:01:29 0.0001585595 115.0 (m) PAYLOAD
SL-16 DEB LEO 2025-02-03 10:23:50 0.0001524903 261.0 (m) DEBRIS
SPOT 5 SSO 2025-01-03 06:45:57 0.0002393269 413.0 (m) PAYLOAD
COSMOS 1275 DEB LEO 2024-08-04 19:12:31 0.0001641088 261.0 (m) DEBRIS

Associated space launch

Chinese polar orbiting meteorological satellite

FENGYUN 1C DEB was lifted into orbit during the mission ‘Long March 4B | Feng Yun 1C’, on board a Long March 4B space rocket.

The launch took place on May 10, 1999, 1:33 a.m. from Launch Complex 7.

For more information about the launch, click the button.

Launch to space Long March 4B | Feng Yun 1C
Long March 4B | Feng Yun 1C

Agency: N/A

Status: Launch Successful

Launch date: May 10, 1999, 1:33 a.m. UTC

Rocket: Long March 4B

Launch pad: Launch Complex 7

Location: Taiyuan Satellite Launch Center, People's Republic of China

...

Latest news about this satellite

There are no fresh news available about this satellite. Check back as we update our databases every day.


Newsletter sign-up

Weekly statistics, charts and insights to help you stay on top of the space industry.